Weather History for KLXL - January, 2013

Change the Weather History Date:

Tuesday, January 15, 2013

  Actual Average Record
Temperature  
Mean Temperature 12 °F -  
Max Temperature 23 °F 18 °F 41 °F (1933)
Min Temperature 0 °F -2 °F -39 °F (1972)
Degree Days  
Heating Degree Days 54    
Moisture  
Dew Point 7 °F    
Average Humidity 74    
Maximum Humidity 92    
Minimum Humidity 59    
Precipitation  
Precipitation 0.00 in - - ()
Sea Level Pressure  
Sea Level Pressure 30.03 in    
Wind  
Wind Speed 4 mph (South)    
Max Wind Speed 14 mph    
Max Gust Speed 20 mph    
Visibility 10 miles    
Events Snow    
Averages and records for this station are not official NWS values.
T = Trace of Precipitation, MM = Missing Value Source: NWS Daily Summary

Daily Weather History Graph

Daily Weather History Graph

Search for Another Location

Airport or City:

Trip Planner

Search our weather history database for the weather conditions in past years. The results will help you decide how hot, cold, wet, or windy it might be!

Date:

Astronomy

Jan. 15, 2013 Rise Set
Actual Time 7:54 AM CST 4:59 PM CST
Civil Twilight 7:21 AM CST 5:32 PM CST
Nautical Twilight 6:44 AM CST 6:09 PM CST
Astronomical Twilight 6:08 AM CST 6:45 PM CST
Moon 9:44 AM CST (1/15) 10:08 PM CST (1/15)
Length of Visible Light 10h 11m
Length of Day
9h 04m
Waxing Crescent, 19% of the Moon is Illuminated
Jan 15
Waxing Crescent
Jan 18
First Quarter
Jan 26
Full
Feb 3
Last Quarter
Feb 10
New

Hourly Weather History & Observations

Time (CST) Temp. Windchill Dew Point Humidity Pressure Visibility Wind Dir Wind Speed Gust Speed Precip Events Conditions
12:13 AM 10.4 °F 4.0 °F 3.2 °F 73% 30.20 in 10.0 mi South 3.5 mph - N/A   Mostly Cloudy
12:34 AM 8.6 °F - 3.2 °F 79% 30.19 in 10.0 mi Calm Calm - N/A Snow Light Snow
12:54 AM 8.6 °F - 3.2 °F 79% 30.19 in 10.0 mi Calm Calm - N/A Snow Light Snow
1:13 AM 6.8 °F - 3.2 °F 85% 30.19 in 10.0 mi Calm Calm - N/A   Scattered Clouds
1:34 AM 6.8 °F - 1.4 °F 79% 30.19 in 10.0 mi Calm Calm - N/A Snow Light Snow
1:53 AM 5.0 °F - 1.4 °F 85% 30.20 in 10.0 mi Calm Calm - N/A   Clear
2:14 AM 5.0 °F - 1.4 °F 85% 30.20 in 10.0 mi Calm Calm - N/A   Clear
2:34 AM 3.2 °F - -0.4 °F 85% 30.19 in 10.0 mi Calm Calm - N/A   Clear
2:53 AM 3.2 °F - -0.4 °F 85% 30.19 in 10.0 mi Calm Calm - N/A   Clear
3:14 AM 1.4 °F - -2.2 °F 85% 30.19 in 10.0 mi Calm Calm - N/A   Clear
3:34 AM -0.4 °F - -4.0 °F 85% 30.19 in 10.0 mi Calm Calm - N/A   Clear
3:53 AM 1.4 °F - -4.0 °F 78% 30.19 in 10.0 mi Calm Calm - N/A   Clear
4:14 AM 1.4 °F - -4.0 °F 78% 30.18 in 10.0 mi Calm Calm - N/A   Clear
4:53 AM 1.4 °F - -4.0 °F 78% 30.17 in 10.0 mi Calm Calm - N/A   Clear
5:14 AM 1.4 °F - -4.0 °F 78% 30.17 in 10.0 mi Calm Calm - N/A   Clear
5:34 AM -0.4 °F - -5.8 °F 78% 30.16 in 10.0 mi Calm Calm - N/A   Clear
6:14 AM -0.4 °F - -5.8 °F 78% 30.16 in 10.0 mi Calm Calm - N/A   Overcast
6:34 AM 1.4 °F - -2.2 °F 85% 30.16 in 10.0 mi Calm Calm - N/A   Overcast
6:53 AM 3.2 °F - -0.4 °F 85% 30.15 in 10.0 mi Calm Calm - N/A   Overcast
7:14 AM 5.0 °F - -0.4 °F 78% 30.16 in 10.0 mi Calm Calm - N/A   Mostly Cloudy
7:33 AM 5.0 °F -2.1 °F 1.4 °F 85% 30.16 in 10.0 mi SSE 3.5 mph - N/A   Mostly Cloudy
7:54 AM 5.0 °F -2.1 °F 1.4 °F 85% 30.15 in 10.0 mi SSE 3.5 mph - N/A   Mostly Cloudy
8:14 AM 5.0 °F -2.1 °F 1.4 °F 85% 30.16 in 10.0 mi SSE 3.5 mph - N/A   Mostly Cloudy
8:33 AM 6.8 °F -0.1 °F 3.2 °F 85% 30.16 in 10.0 mi SSE 3.5 mph - N/A   Mostly Cloudy
8:54 AM 6.8 °F -0.1 °F 3.2 °F 85% 30.15 in 10.0 mi SSE 3.5 mph - N/A   Mostly Cloudy
9:14 AM 8.6 °F 2.0 °F 3.2 °F 79% 30.14 in 10.0 mi SSE 3.5 mph - N/A   Overcast
9:33 AM 8.6 °F 0.1 °F 5.0 °F 85% 30.14 in 10.0 mi SSE 4.6 mph - N/A   Mostly Cloudy
9:54 AM 10.4 °F 4.0 °F 6.8 °F 85% 30.13 in 10.0 mi SSE 3.5 mph - N/A   Overcast
10:14 AM 10.4 °F 2.2 °F 8.6 °F 92% 30.12 in 10.0 mi SSE 4.6 mph - N/A   Scattered Clouds
10:33 AM 12.2 °F 4.3 °F 8.6 °F 85% 30.11 in 10.0 mi SSE 4.6 mph - N/A   Clear
10:54 AM 14.0 °F 5.1 °F 8.6 °F 79% 30.10 in 10.0 mi South 5.8 mph - N/A   Clear
11:14 AM 15.8 °F 7.2 °F 8.6 °F 73% 30.09 in 10.0 mi South 5.8 mph - N/A   Clear
11:33 AM 17.6 °F 8.2 °F 10.4 °F 73% 30.07 in 10.0 mi South 6.9 mph - N/A   Clear
11:54 AM 19.4 °F 9.5 °F 10.4 °F 68% 30.05 in 10.0 mi South 8.1 mph - N/A   Clear
12:14 PM 21.2 °F 9.5 °F 10.4 °F 63% 30.04 in 10.0 mi SSW 11.5 mph 16.1 mph N/A   Clear
12:33 PM 21.2 °F 8.9 °F 10.4 °F 63% 30.04 in 1.2 mi South 12.7 mph - N/A Snow Light Snow
12:54 PM 21.2 °F 10.9 °F 10.4 °F 63% 30.04 in 10.0 mi SSW 9.2 mph - N/A   Clear
1:33 PM 21.2 °F 8.9 °F 10.4 °F 63% 30.01 in 5.0 mi SSW 12.7 mph 17.3 mph N/A   Haze
1:54 PM 21.2 °F 9.5 °F 10.4 °F 63% 30.01 in 10.0 mi SSW 11.5 mph - N/A   Clear
2:13 PM 21.2 °F 9.5 °F 10.4 °F 63% 30.00 in 10.0 mi South 11.5 mph - N/A   Clear
2:34 PM 21.2 °F 10.1 °F 10.4 °F 63% 30.00 in 10.0 mi SSW 10.4 mph - N/A   Clear
2:54 PM 23.0 °F 13.1 °F 10.4 °F 59% 29.99 in 10.0 mi South 9.2 mph - N/A   Clear
3:13 PM 21.2 °F 10.1 °F 10.4 °F 63% 29.99 in 10.0 mi South 10.4 mph - N/A   Clear
3:34 PM 21.2 °F 9.5 °F 10.4 °F 63% 29.99 in 10.0 mi SSW 11.5 mph - N/A   Clear
3:54 PM 21.2 °F 10.9 °F 10.4 °F 63% 29.98 in 10.0 mi SSW 9.2 mph - N/A   Clear
4:13 PM 21.2 °F 10.9 °F 10.4 °F 63% 29.99 in 10.0 mi South 9.2 mph - N/A   Clear
4:34 PM 21.2 °F 12.6 °F 10.4 °F 63% 29.98 in 10.0 mi SSW 6.9 mph - N/A   Clear
4:54 PM 19.4 °F 8.6 °F 10.4 °F 68% 29.97 in 10.0 mi South 9.2 mph - N/A   Clear
5:34 PM 19.4 °F 9.5 °F 12.2 °F 74% 29.95 in 10.0 mi South 8.1 mph - N/A   Clear
5:53 PM 19.4 °F 8.6 °F 12.2 °F 74% 29.94 in 10.0 mi South 9.2 mph - N/A   Clear
6:14 PM 19.4 °F 8.6 °F 14.0 °F 80% 29.92 in 10.0 mi South 9.2 mph - N/A   Clear
6:33 PM 21.2 °F 10.9 °F 14.0 °F 74% 29.91 in 10.0 mi South 9.2 mph 17.3 mph N/A   Clear
6:53 PM 21.2 °F 10.1 °F 14.0 °F 74% 29.90 in 10.0 mi South 10.4 mph 16.1 mph N/A   Clear
7:14 PM 21.2 °F 9.5 °F 14.0 °F 74% 29.89 in 10.0 mi South 11.5 mph - N/A   Clear
7:33 PM 21.2 °F 9.5 °F 12.2 °F 68% 29.87 in 10.0 mi SSW 11.5 mph - N/A   Clear
7:53 PM 21.2 °F 8.9 °F 12.2 °F 68% 29.84 in 10.0 mi South 12.7 mph 19.6 mph N/A   Clear
8:14 PM 21.2 °F 10.9 °F 12.2 °F 68% 29.84 in 10.0 mi SSW 9.2 mph 18.4 mph N/A   Clear
8:33 PM 21.2 °F 9.5 °F 12.2 °F 68% 29.84 in 10.0 mi SSW 11.5 mph - N/A   Clear
8:53 PM 21.2 °F 10.9 °F 12.2 °F 68% 29.82 in 10.0 mi SSW 9.2 mph - N/A   Clear
9:14 PM 19.4 °F 7.9 °F 12.2 °F 74% 29.80 in 10.0 mi SSW 10.4 mph - N/A   Clear
9:33 PM 21.2 °F 10.1 °F 12.2 °F 68% 29.79 in 10.0 mi South 10.4 mph 16.1 mph N/A   Clear
9:53 PM 21.2 °F 10.9 °F 12.2 °F 68% 29.78 in 10.0 mi SSW 9.2 mph - N/A   Clear
10:14 PM 21.2 °F 10.9 °F 12.2 °F 68% 29.77 in 10.0 mi SSW 9.2 mph - N/A   Clear
10:33 PM 21.2 °F 10.1 °F 12.2 °F 68% 29.75 in 10.0 mi SSW 10.4 mph - N/A   Clear
10:53 PM 23.0 °F 11.7 °F 12.2 °F 63% 29.74 in 10.0 mi SSW 11.5 mph 17.3 mph N/A   Mostly Cloudy
11:14 PM 23.0 °F 12.4 °F 14.0 °F 68% 29.72 in 10.0 mi SSW 10.4 mph 16.1 mph N/A   Overcast
11:33 PM 23.0 °F 10.6 °F 14.0 °F 68% 29.70 in 10.0 mi SSW 13.8 mph - N/A   Overcast
11:54 PM 23.0 °F 11.1 °F 14.0 °F 68% 29.67 in 10.0 mi South 12.7 mph 18.4 mph N/A   Overcast